EHI
0 0 0 0 0 0 0 0 0 0 0 0 0 0 0 0 0 0 0 0 0 0 0 0 0 0 0 0 1 2 2 2 1 0 1 2 2 2 2 1 0 0 0
0 0 0 0 0 0 0 0 0 0 0 0 0 0 0 0 0 0 0 0 0 0 0 0 0 0 0 0 0 1 1 1 1 1 1 1 1 1 1 0 0 0 0
0 0 0 0 0 0 0 0 0 0 0 0 0 0 0 0 0 0 0 0 0 0 0 0 0 0 0 0 0 0 0 1 1 1 0 0 0 0 0 0 0 0 0
0 0 0 0 0 0 0 0 0 0 0 0 0 0 0 0 0 0 0 0 0 0 0 0 0 0 0 0 0 0 0 0 1 1 1 1 1 0 0 0 0 0 0
0 0 0 0 0 0 0 0 0 0 0 0 0 0 0 0 0 0 0 0 0 0 0 0 0 0 0 0 0 0 0 1 1 2 2 2 2 1 0 0 0 0 0
1 1 0 0 0 0 0 0 0 0 0 0 0 0 0 0 0 0 0 0 0 0 0 0 0 0 0 0 0 0 0 1 2 2 3 3 2 1 0 0 0 0 0
1 1 0 0 0 0 0 0 0 0 0 0 0 0 0 0 0 0 0 0 0 0 0 0 0 0 0 0 0 0 0 0 1 1 2 3 2 1 0 0 0 0 0
2 2 1 0 0 0 0 0 0 0 0 0 0 0 0 0 0 0 0 0 0 0 0 0 0 0 0 0 0 0 0 0 0 1 1 2 2 1 0 0 0 0 0
5 4 2 0 0 0 0 0 0 0 0 0 0 0 0 0 0 0 0 0 0 0 0 0 0 0 0 0 0 0 0 0 0 0 0 0 1 1 0 0 0 0 0
6 5 4 1 0 0 0 0 0 0 0 0 0 0 0 0 0 0 0 0 0 0 0 0 0 0 0 0 0 0 0 0 0 0 0 0 0 0 0 1 1 1 0
4 4 3 2 0 0 0 0 0 0 0 0 0 0 0 0 0 0 0 0 0 0 0 0 0 0 0 0 0 0 0 0 0 0 0 0 0 0 0 1 1 1 0
2 2 2 1 0 0 0 0 0 0 0 0 0 0 0 0 0 0 0 0 0 0 0 0 0 0 0 0 0 0 0 0 0 0 0 0 0 0 0 0 0 0 0
1 1 1 0 0 0 0 0 0 0 0 0 0 0 0 0 0 0 0 0 0 0 0 0 0 0 0 0 0 0 0 0 0 0 0 0 0 0 0 0 0 0 0
0 0 0 0 0 0 0 0 0 0 0 0 0 0 0 0 0 0 0 0 0 0 0 0 0 0 0 0 0 0 0 0 0 0 0 0 0 0 0 0 0 0 0
0 0 0 0 0 0 0 0 0 0 0 0 0 0 0 0 0 0 0 0 0 0 0 0 0 0 0 0 0 0 0 0 0 0 0 0 0 0 0 0 0 0 0
0 0 0 0 0 0 0 0 0 0 0 0 0 0 0 0 0 0 0 0 0 0 0 0 0 0 0 0 0 0 0 0 0 0 0 0 0 0 0 0 0 0 0
0 0 0 0 0 0 0 0 0 0 0 0 0 0 0 0 0 0 0 0 0 0 0 0 0 0 0 0 0 0 0 0 0 0 0 0 0 0 0 0 0 0 0
0 0 0 0 0 0 0 0 0 0 0 0 0 0 0 0 0 0 0 0 0 0 0 0 0 0 0 0 0 0 0 0 0 0 0 0 0 0 0 0 0 0 0
0 0 0 0 0 0 0 0 0 0 0 0 0 0 0 0 0 0 0 0 0 0 0 0 0 0 0 0 0 0 0 0 0 0 0 0 0 0 0 0 0 0 0
0 0 0 0 0 0 0 0 0 0 0 0 0 0 0 0 0 0 0 0 0 0 0 0 0 0 0 0 0 0 0 0 0 0 0 0 0 0 0 0 0 0 0
0 0 0 0 0 0 0 0 0 0 0 0 0 0 0 0 0 0 0 0 0 0 0 0 0 0 0 0 0 0 0 0 0 0 0 0 0 0 0 0 0 0 0
0 0 0 0 0 0 0 0 0 0 0 0 0 0 0 0 0 0 0 0 0 0 0 0 0 0 0 0 0 0 0 0 0 0 0 0 0 0 0 0 0 0 0
0 0 0 0 0 0 0 0 0 0 0 0 0 0 0 0 0 0 0 0 0 0 0 0 0 0 0 0 0 0 0 0 0 0 0 0 0 0 0 0 0 0 0
0 0 0 0 0 0 0 0 0 0 0 0 0 0 0 0 0 0 0 0 0 0 0 0 0 0 0 0 0 0 0 0 0 0 0 0 0 0 0 0 0 0 0
0 0 0 0 0 0 0 0 0 0 0 0 0 0 0 0 0 0 0 0 0 0 0 0 0 0 0 0 0 0 0 0 0 0 0 0 0 0 0 0 0 0 0
0 0 0 0 0 0 0 0 0 0 0 0 0 0 0 0 0 0 0 0 0 0 0 0 0 0 0 0 0 0 0 0 0 0 0 0 0 0 0 0 0 0 0
Wind_Speed
4 4 4 3 4 4 4 4 4 5 6 6 6 7 8 8 8 7 6 13 14 14 15 15 13 12 11 11 11 11 12 13 12 12 13 15 16 17 18 19 19 18 17
5 4 4 4 5 4 4 4 5 5 5 5 6 7 7 7 7 7 7 8 13 14 15 15 14 13 12 11 11 11 11 12 11 11 12 14 15 16 17 19 20 19 19
6 5 5 5 5 4 4 4 4 4 4 4 6 7 6 7 7 7 7 6 7 11 14 15 14 13 12 12 12 11 11 11 12 12 12 13 14 15 17 18 20 20 20
8 6 5 6 5 3 3 3 3 3 4 4 4 5 5 5 8 8 7 7 6 6 9 14 13 13 13 13 13 12 12 12 12 12 13 13 14 15 16 18 19 20 21
8 7 6 5 4 3 3 3 3 3 3 4 4 5 5 5 7 8 8 8 7 7 6 9 12 12 12 13 13 13 12 12 12 12 13 13 14 14 16 18 19 20 22
8 7 6 6 5 4 4 3 4 3 3 3 4 6 6 7 6 7 8 7 6 7 6 7 6 7 10 11 12 12 13 12 11 12 12 13 14 13 15 17 19 21 22
8 7 6 5 5 5 5 4 3 3 3 2 2 4 5 5 6 5 4 4 5 5 5 5 4 4 4 8 10 10 11 11 11 11 12 12 13 13 14 16 18 21 23
7 6 6 5 5 4 4 3 3 2 2 1 1 2 4 5 3 3 3 3 4 4 4 4 4 4 4 3 5 9 9 10 10 11 11 12 13 13 14 16 18 20 23
5 5 5 4 4 4 3 4 4 4 2 2 3 2 2 3 4 4 3 3 3 3 4 4 5 5 5 4 4 6 8 7 8 11 12 12 12 12 14 16 18 21 24
5 4 4 5 4 4 4 3 3 3 3 2 2 3 4 4 3 5 3 3 3 4 5 4 5 5 5 4 4 6 6 6 8 10 12 13 13 12 14 16 19 22 25
3 4 4 4 4 3 3 3 2 3 3 3 2 2 3 3 5 5 6 5 4 3 4 6 5 5 5 4 3 4 5 5 7 9 11 12 12 12 13 16 20 23 26
2 3 3 3 3 3 3 2 2 2 2 3 3 3 3 3 3 4 5 5 6 4 5 5 4 4 4 3 4 4 4 5 6 8 9 11 11 11 12 16 20 23 26
2 3 3 3 2 2 2 1 1 1 1 2 3 3 3 4 3 3 4 5 5 4 4 3 3 4 3 2 2 4 3 4 5 6 8 9 9 9 11 14 18 22 26
3 4 4 4 3 3 2 2 1 0 0 1 2 2 2 2 2 2 2 3 5 4 3 4 3 3 3 2 3 3 2 3 4 5 7 8 7 6 7 11 15 19 24
4 5 5 4 4 3 3 3 2 1 1 1 1 1 1 2 2 2 2 2 3 4 4 3 3 3 3 3 3 3 2 2 3 4 5 6 5 3 5 9 12 16 21
5 6 5 5 5 4 4 3 2 2 2 2 2 2 2 2 3 3 2 2 3 4 5 3 4 6 7 6 4 4 3 2 1 2 4 4 3 2 6 10 14 18 21
6 6 5 5 5 5 4 4 3 3 3 4 4 4 4 3 3 3 3 3 2 3 6 5 4 6 7 7 3 3 3 2 1 1 3 4 5 6 8 12 16 19 21
6 6 6 6 5 5 4 4 4 4 4 4 4 5 5 4 5 4 3 4 3 3 4 7 6 5 6 6 4 3 3 3 2 2 3 4 6 8 9 12 15 17 18
6 6 6 6 5 4 4 4 4 5 4 4 4 5 5 6 5 4 5 4 4 4 4 5 6 4 3 3 2 2 3 2 2 3 4 4 5 8 9 11 14 15 16
6 6 6 5 5 5 5 4 5 5 5 5 5 5 5 5 5 6 5 5 5 5 5 5 5 4 4 3 2 1 2 2 3 3 4 4 5 7 9 11 12 14 14
6 6 6 5 4 4 4 4 4 5 5 6 6 6 6 8 8 5 4 5 5 4 5 4 4 4 4 4 3 2 3 2 3 3 4 4 5 5 6 9 11 13 13
5 6 6 5 5 4 6 6 5 5 5 6 6 6 5 8 10 10 9 7 5 4 4 4 4 5 5 5 5 4 3 2 3 4 4 4 5 5 6 7 10 13 14
5 6 5 6 6 6 8 7 8 5 6 5 5 6 6 7 9 8 9 8 7 7 4 3 4 4 5 5 7 6 5 3 3 2 4 4 5 6 6 7 12 14 15
5 5 5 5 6 7 9 8 8 6 6 5 5 5 5 7 9 9 7 7 7 7 7 4 3 5 5 6 6 5 6 5 2 1 3 3 4 5 5 5 11 14 15
5 5 5 5 6 7 9 8 6 4 5 5 4 5 6 7 11 11 7 7 8 8 7 8 7 7 8 9 8 5 6 4 2 1 1 1 2 3 3 4 6 11 12
5 6 6 5 6 6 8 8 6 4 4 3 4 5 8 9 10 10 7 7 8 7 8 9 9 10 9 9 10 7 5 5 3 3 2 1 0 2 2 2 3 4 6
Wind_Direction
223 230 243 247 250 246 246 252 257 264 269 274 272 270 272 270 269 265 266 272 274 272 273 273 268 261 254 247 242 238 237 241 241 236 235 235 233 227 220 213 207 202 199
220 226 240 243 245 239 236 241 250 259 268 272 277 275 273 274 271 269 264 269 272 271 269 268 264 258 252 248 244 239 238 240 240 238 238 237 235 229 223 216 210 203 198
219 222 232 240 242 233 234 240 249 252 263 267 271 276 275 273 275 274 270 262 265 268 266 263 257 252 250 249 247 242 238 238 239 240 240 239 236 229 223 217 211 204 197
216 217 226 236 232 220 221 230 238 247 257 264 272 278 278 278 278 276 273 267 260 261 264 262 256 249 247 248 248 245 241 239 240 241 243 241 238 232 224 217 211 203 196
213 210 222 227 215 214 220 231 228 225 255 270 278 279 276 275 276 280 276 274 268 263 259 259 258 254 250 248 248 246 244 243 242 244 248 247 242 236 226 217 209 202 195
209 206 216 215 204 208 217 219 231 229 242 263 283 286 282 278 275 274 277 281 281 279 269 262 258 257 252 251 251 249 249 247 246 247 251 252 248 240 229 217 208 201 194
207 203 211 206 202 210 217 213 216 237 249 230 277 299 293 281 278 277 280 288 295 297 285 269 257 252 254 254 253 253 255 254 253 253 256 256 253 244 232 218 207 199 192
206 204 207 206 204 210 218 211 199 217 244 202 212 302 313 319 316 293 291 290 304 312 311 305 280 263 256 251 250 252 254 258 262 264 263 263 257 247 234 219 208 197 190
202 196 200 205 201 203 219 217 204 207 234 235 196 214 261 283 309 299 288 288 303 310 309 304 291 277 262 249 252 251 251 255 266 274 275 272 262 248 235 220 209 194 187
198 195 196 196 195 198 210 217 205 203 208 240 233 220 227 237 268 298 298 287 294 294 295 296 293 285 270 255 245 244 247 255 270 278 280 277 269 252 233 217 207 194 185
193 186 195 188 184 187 198 201 197 201 202 221 228 234 241 240 232 255 288 299 298 274 276 281 282 286 283 267 252 243 247 263 276 284 285 282 275 257 231 215 206 195 185
170 163 173 171 168 173 194 194 198 214 222 233 237 231 234 247 246 245 271 293 299 289 278 274 277 283 286 279 268 258 257 274 286 294 295 290 279 260 232 215 205 194 183
169 161 151 150 148 157 163 159 168 216 239 249 252 247 241 245 247 249 267 282 289 294 287 282 274 286 296 293 284 273 266 279 299 308 306 300 286 260 232 212 201 190 182
148 142 133 125 123 121 117 110 101 22 320 289 284 275 263 265 257 253 263 285 297 292 280 281 288 284 300 294 271 258 268 289 317 323 322 314 297 260 223 201 190 183 176
115 111 108 103 93 90 89 91 77 34 2 342 325 325 308 314 322 301 282 271 283 297 299 284 296 304 310 286 256 241 240 278 322 339 343 338 327 256 198 180 173 169 164
97 101 98 95 90 83 80 81 70 42 50 28 16 20 14 357 353 349 335 317 287 281 285 292 289 299 303 291 249 229 221 229 329 2 11 10 23 94 144 150 149 150 152
96 96 99 95 88 78 71 74 63 51 50 37 30 30 21 9 0 351 345 338 324 302 286 293 285 300 296 291 273 222 207 205 198 68 56 56 71 93 118 132 138 143 147
98 101 101 93 86 76 69 69 62 53 51 43 34 31 15 5 2 353 345 338 324 307 294 299 304 303 295 299 277 227 208 201 187 148 113 97 96 103 114 126 134 140 145
100 98 97 94 87 78 70 63 64 59 54 48 40 33 13 6 359 347 339 336 325 318 296 294 301 299 296 314 306 242 211 201 194 171 153 132 124 122 126 131 137 142 148
105 100 95 93 87 75 66 59 61 58 52 45 38 31 20 9 352 340 338 338 333 330 326 317 311 316 314 319 314 273 228 205 207 190 173 161 156 148 148 148 150 153 158
103 104 97 85 74 68 56 60 61 60 53 44 34 25 19 17 9 358 346 335 337 338 338 339 334 336 338 341 334 311 267 225 209 188 174 176 173 175 175 171 169 170 171
96 95 89 84 66 51 45 64 80 71 62 52 36 16 9 16 3 360 359 359 356 345 338 339 336 337 333 328 326 316 296 245 221 188 182 188 180 189 190 193 190 186 186
101 94 86 80 68 41 45 64 82 84 72 59 44 25 16 6 4 357 352 360 7 5 356 312 321 325 322 325 325 319 309 287 252 184 179 194 184 198 196 199 193 195 197
99 95 88 80 69 43 44 67 85 82 76 63 49 34 19 3 3 354 354 6 6 8 0 354 326 313 311 312 308 294 299 296 269 200 186 194 185 193 183 192 197 200 202
97 93 91 82 72 46 43 65 83 80 72 56 42 35 26 14 360 6 16 10 6 3 3 6 10 9 2 4 0 356 352 346 331 320 231 214 177 170 172 181 184 191 198
107 101 88 76 73 57 44 61 76 82 73 50 31 26 29 22 13 17 24 19 11 351 348 357 5 8 9 9 15 18 1 354 347 342 351 327 179 150 167 165 163 171 184